This is the latest recevied weather packets stored in our database for station/object KC8QDR-1. If no packets are shown the sender has not sent any weather packets the latest 10 day(s).
| Time | Temp. | Humidity | Pressure | Rain* | Wind** | Luminosity | Snow |
|---|---|---|---|---|---|---|---|
| 1777922325 | 22.78° C | 48% | 1013.4 hPa | 0 mm | 4.02 m/s, 186° | - | - |
| 1777921725 | 22.22° C | 49% | 1013.5 hPa | 0 mm | 4.02 m/s, 196° | - | - |
| 1777921125 | 22.78° C | 48% | 1013.5 hPa | 0 mm | 2.24 m/s, 190° | - | - |
| 1777920525 | 22.78° C | 51% | 1013.5 hPa | 0 mm | 2.24 m/s, 175° | - | - |
| 1777919925 | 22.78° C | 51% | 1013.5 hPa | 0 mm | 2.24 m/s, 276° | - | - |
| 1777919325 | 22.78° C | 45% | 1013.4 hPa | 0 mm | 3.58 m/s, 248° | - | - |
| 1777918728 | 22.78° C | 45% | 1013.4 hPa | 0 mm | 4.02 m/s, 179° | - | - |
| 1777918128 | 22.22° C | 46% | 1013.3 hPa | 0 mm | 1.79 m/s, 169° | - | - |
| 1777917525 | 22.22° C | 44% | 1013.3 hPa | 0 mm | 3.13 m/s, 200° | - | - |
| 1777916925 | 22.22° C | 50% | 1013.2 hPa | 0 mm | 2.68 m/s, 182° | - | - |
| 1777916327 | 21.67° C | 46% | 1013.2 hPa | 0 mm | 2.24 m/s, 196° | - | - |
| 1777915725 | 21.67° C | 49% | 1013.4 hPa | 0 mm | 2.24 m/s, 184° | - | - |
| 1777915125 | 21.67° C | 50% | 1013.3 hPa | 0 mm | 3.58 m/s, 230° | - | - |
| 1777914528 | 20.56° C | 49% | 1013.3 hPa | 0 mm | 5.81 m/s, 182° | - | - |
| 1777913925 | 20.56° C | 52% | 1013.4 hPa | 0 mm | 3.58 m/s, 208° | - | - |
| 1777913325 | 20° C | 51% | 1013.4 hPa | 0 mm | 2.68 m/s, 176° | - | - |
| 1777912727 | 20° C | 54% | 1013.5 hPa | 0 mm | 2.24 m/s, 187° | - | - |
| 1777912125 | 19.44° C | 49% | 1013.6 hPa | 0 mm | 0.89 m/s, 223° | - | - |
| 1777911525 | 18.89° C | 52% | 1013.7 hPa | 0 mm | 3.13 m/s, 190° | - | - |
| 1777910927 | 18.89° C | 52% | 1013.8 hPa | 0 mm | 1.79 m/s, 220° | - | - |
| 1777910325 | 18.89° C | 54% | 1013.8 hPa | 0 mm | 3.13 m/s, 210° | - | - |
| 1777909725 | 18.89° C | 52% | 1013.9 hPa | 0 mm | 4.47 m/s, 156° | - | - |
| 1777909125 | 18.89° C | 52% | 1014 hPa | 0 mm | 2.68 m/s, 208° | - | - |
| 1777908527 | 18.89° C | 54% | 1014 hPa | 0 mm | 3.58 m/s, 189° | - | - |
| 1777907925 | 18.33° C | 54% | 1014 hPa | 0 mm | 2.24 m/s, 206° | - | - |
* Rain latest hour (hover to see other rain measurements)
** Current wind speed in m/s (hover to see current wind gust speed)